TRAAC DEB, 10796

Orbit data source: Space-Track

TRAAC DEB, 10796 is space debris in LEO originally from a launch on Wed, 15 Nov 1961 UTC launched from the Air Force Eastern Test Range (AFETR). Debris objects in space refer to the collection of defunct objects orbiting the Earth. Examples of debris include non-operational satellites, rocket bodies, and fragments generated from explosions, collisions, or faulty payload assembly.

Loading next visibility...
Identifier
10796, 1961-031D
Orbit
LEO
Country
Flag of USUS
Related business
Manufacturer
Unknown
Mission
Spacecraft
Bus & Motor
Unknown
Mass
Unknown
Launch date (UTC)
1961-11-15 (64 years ago)
Launch vehicle
Unknown
Launch site
Air Force Eastern Test Range (AFETR)
Object type
Payload
Rocket body
Debris
Shape & HBR
Unknown shape, 0.2 m
Radar Cross Section
Small (<0.1 m²)

Expand to show TLE details & history
Last TLE update: 7 hours ago

TLE from 7 hours ago
0 TRAAC DEB
1 10796U 61031D   25354.15839311  .00000068  00000-0  55662-4 0  9996
2 10796  32.4414 275.3927 0101363 142.6277   6.4036 13.63223613195791
Epoch: 2025-12-20T03:48Z
TLE epoch observation values (Epoch: 2025-12-20T03:48:05.164Z)
Latitude
16.01751°
Longitude
-77.31529°
Altitude
947.546 km
Speed
7.418 km/s
True Right ascension
04h 34m 46s
True Declination
15° 55' 44"
Sunlit
Object was in full shadow at epoch
Visualization orbit readout
Latitude
Unknown
Longitude
Unknown
Altitude
Unknown
Speed
Unknown
Apparent Right ascension
Unknown
Apparent Declination
Unknown
Sunlit
N/A
Visualization observer readout
Local Sidereal Time
09:28:05
Azimuth
Unknown
Elevation
Unknown
Doppler factor
Unknown
Orbital elements
Apogee altitude
1,102.452 km
Perigee altitude
952.323 km
Semi-major axis
7,405.525 km
Eccentricity
0.01014
Inclination
32.4414°
RAAN
275.3927°
Arg. of periapsis
142.6277°
True anomaly
6.5348°
Mean anomaly
6.4036°
Eccentric anomaly
6.46903°
Mean motion
3.40572 °/min
Orbital period
105.7 mins
BSTAR
0.000055662
Loading maneuver chart data...
Computing Atmospheric mass density...
Loading historical data...
Loading historical data...
Loading historical data...
Loading historical data...
Loading historical data...
Loading historical data...
Loading historical data...
Other satellites on launch #31 in the year 1961 (1961-11-15 UTC)

Documentation

Showing up to 5 results
|